TimeEDT,TemperatureF,Dew PointF,Humidity,Sea Level PressureIn,VisibilityMPH,Wind Direction,Wind SpeedMPH,Gust SpeedMPH,PrecipitationIn,Events,Conditions,WindDirDegrees,DateUTC
12:15 AM,59.4,53.8,82,30.03,10.0,North,4.6,-,N/A,,Clear,10,2013-07-25 04:15:00
12:35 AM,59.0,53.6,82,30.04,10.0,NNE,5.8,-,N/A,,Clear,20,2013-07-25 04:35:00
12:55 AM,58.5,53.6,84,30.04,10.0,NNE,4.6,-,N/A,,Clear,20,2013-07-25 04:55:00
1:15 AM,58.1,53.6,85,30.04,10.0,NNE,3.5,-,N/A,,Clear,30,2013-07-25 05:15:00
1:35 AM,57.2,53.2,87,30.04,10.0,NE,3.5,-,N/A,,Clear,40,2013-07-25 05:35:00
1:55 AM,57.6,52.9,84,30.04,10.0,NNE,3.5,-,N/A,,Clear,30,2013-07-25 05:55:00
2:15 AM,57.2,52.7,85,30.04,10.0,NE,3.5,-,N/A,,Clear,40,2013-07-25 06:15:00
2:35 AM,56.5,52.7,87,30.04,10.0,NE,3.5,-,N/A,,Clear,40,2013-07-25 06:35:00
2:55 AM,56.5,52.7,87,30.04,10.0,NE,3.5,-,N/A,,Clear,50,2013-07-25 06:55:00
3:15 AM,56.5,52.3,86,30.03,10.0,Calm,Calm,-,N/A,,Clear,0,2013-07-25 07:15:00
3:35 AM,55.9,52.7,89,30.04,10.0,North,3.5,-,N/A,,Clear,10,2013-07-25 07:35:00
3:55 AM,55.2,52.7,91,30.04,10.0,Calm,Calm,-,N/A,,Clear,0,2013-07-25 07:55:00
4:15 AM,54.3,52.9,95,30.04,10.0,Calm,Calm,-,N/A,,Clear,0,2013-07-25 08:15:00
4:35 AM,53.6,52.7,97,30.04,10.0,Calm,Calm,-,N/A,,Clear,0,2013-07-25 08:35:00
4:55 AM,53.8,52.5,95,30.04,10.0,North,4.6,-,N/A,,Clear,360,2013-07-25 08:55:00
5:15 AM,54.3,52.2,92,30.04,10.0,North,4.6,-,N/A,,Clear,10,2013-07-25 09:15:00
5:35 AM,54.7,52.0,91,30.04,10.0,NNE,4.6,-,N/A,,Clear,20,2013-07-25 09:35:00
5:55 AM,53.8,52.0,94,30.05,10.0,North,5.8,-,N/A,,Clear,10,2013-07-25 09:55:00
6:15 AM,53.8,52.2,94,30.05,10.0,NNE,4.6,-,N/A,,Clear,20,2013-07-25 10:15:00
6:35 AM,54.1,52.2,93,30.05,10.0,NNE,4.6,-,N/A,,Clear,20,2013-07-25 10:35:00
6:55 AM,54.5,52.3,92,30.06,10.0,North,4.6,-,N/A,,Clear,10,2013-07-25 10:55:00
7:15 AM,55.6,52.9,91,30.06,10.0,North,4.6,-,N/A,,Clear,360,2013-07-25 11:15:00
7:20 AM,55.4,53.6,94,30.06,10.0,North,6.9,-,N/A,,Clear,360,2013-07-25 11:20:00
7:50 AM,57.2,53.6,88,30.07,10.0,NNE,4.6,-,N/A,,Clear,30,2013-07-25 11:50:00
8:50 AM,62.6,53.6,72,30.08,10.0,NNE,4.6,-,N/A,,Clear,30,2013-07-25 12:50:00
9:50 AM,64.4,50.0,59,30.08,10.0,NE,8.1,-,N/A,,Clear,40,2013-07-25 13:50:00
10:50 AM,68.0,51.8,56,30.08,10.0,NNE,9.2,-,N/A,,Clear,30,2013-07-25 14:50:00
11:50 AM,69.8,51.8,53,30.09,10.0,North,10.4,-,N/A,,Clear,10,2013-07-25 15:50:00
12:58 PM,71.6,51.8,50,30.08,10.0,North,8.1,-,N/A,,Clear,360,2013-07-25 16:58:00
1:50 PM,73.4,51.8,47,30.08,10.0,North,5.8,-,N/A,,Clear,360,2013-07-25 17:50:00
2:50 PM,75.2,51.8,44,30.07,10.0,NE,3.5,-,N/A,,Clear,40,2013-07-25 18:50:00
3:50 PM,75.2,51.8,44,30.07,10.0,NNE,6.9,-,N/A,,Clear,20,2013-07-25 19:50:00
4:50 PM,77.0,51.8,41,30.06,10.0,North,5.8,-,N/A,,Clear,360,2013-07-25 20:50:00
5:50 PM,75.2,51.8,44,30.08,10.0,NNW,4.6,-,N/A,,Clear,340,2013-07-25 21:50:00
6:50 PM,75.2,53.6,47,30.06,10.0,NNE,4.6,-,N/A,,Clear,20,2013-07-25 22:50:00
7:35 PM,74.1,55.2,52,30.07,10.0,North,3.5,-,N/A,,Clear,10,2013-07-25 23:35:00
7:55 PM,73.2,55.9,55,30.07,10.0,Calm,Calm,-,N/A,,Clear,0,2013-07-25 23:55:00
8:15 PM,71.8,55.6,57,30.07,10.0,Calm,Calm,-,N/A,,Clear,0,2013-07-26 00:15:00
8:35 PM,69.6,56.5,63,30.08,10.0,NW,8.1,-,N/A,,Clear,310,2013-07-26 00:35:00
8:55 PM,67.8,56.5,67,30.08,10.0,NW,6.9,-,N/A,,Clear,310,2013-07-26 00:55:00
9:15 PM,67.1,56.3,68,30.09,10.0,NNW,5.8,-,N/A,,Clear,330,2013-07-26 01:15:00
9:35 PM,65.3,56.5,73,30.09,10.0,Calm,Calm,-,N/A,,Clear,0,2013-07-26 01:35:00
9:55 PM,65.5,56.5,73,30.10,10.0,Calm,Calm,-,N/A,,Clear,0,2013-07-26 01:55:00
10:15 PM,63.1,57.4,81,30.10,10.0,Calm,Calm,-,N/A,,Clear,0,2013-07-26 02:15:00
10:35 PM,60.3,57.7,91,30.10,10.0,Calm,Calm,-,N/A,,Clear,0,2013-07-26 02:35:00
10:55 PM,60.1,58.1,93,30.10,10.0,Calm,Calm,-,N/A,,Clear,0,2013-07-26 02:55:00
11:15 PM,59.9,57.7,93,30.10,10.0,Calm,Calm,-,N/A,,Clear,0,2013-07-26 03:15:00
11:35 PM,59.5,57.4,93,30.09,10.0,Calm,Calm,-,N/A,,Clear,0,2013-07-26 03:35:00
11:55 PM,60.1,57.0,90,30.10,10.0,Calm,Calm,-,N/A,,Clear,0,2013-07-26 03:55:00